�N����,����,�~����,�C��,���x,�C��,����,���ϕ���,�ő�u�ԕ���,�ő厞����,���˗�,�I�_���x,�n�����x,�ő啗���N��,DTYPE
"18/06/10","00:10",0.0,18.2,79.9,1002.2,254.0,0.6,1.3,325.3,0.00,14.7,20.9,"00:00:08",1
"18/06/10","00:20",0.0,18.0,81.3,1001.9,295.9,1.0,2.6,334.8,0.00,14.8,20.9,"00:14:56",1
"18/06/10","00:30",0.0,17.6,82.7,1002.4,256.0,0.8,1.7,278.8,0.00,14.7,20.6,"00:22:40",1
"18/06/10","00:40",0.0,17.4,85.0,1002.4,252.7,1.1,1.8,235.1,0.00,14.9,20.7,"00:32:56",1
"18/06/10","00:50",0.0,17.2,85.5,1001.9,275.4,0.8,1.8,222.3,0.00,14.8,20.7,"00:41:20",1
"18/06/10","01:00",0.0,17.0,86.0,1001.9,288.8,1.0,1.6,308.7,0.00,14.7,20.5,"00:52:32",1
"18/06/10","01:10",0.0,16.7,87.1,1001.7,273.4,1.0,1.9,260.0,0.00,14.6,20.5,"01:03:36",1
"18/06/10","01:20",0.0,16.5,88.0,1001.7,276.6,0.8,1.3,268.5,0.00,14.5,20.5,"01:10:48",1
"18/06/10","01:30",0.0,16.2,88.4,1001.7,288.9,0.6,0.9,299.3,0.00,14.3,20.4,"01:20:32",1
"18/06/10","01:40",0.0,16.0,89.7,1001.7,293.3,0.8,1.3,320.4,0.00,14.4,20.3,"01:35:04",1
"18/06/10","01:50",0.0,16.0,90.4,1001.7,299.5,1.0,1.6,308.6,0.00,14.5,20.3,"01:49:44",1
"18/06/10","02:00",0.0,16.0,90.1,1001.7,299.0,1.1,1.6,312.6,0.00,14.4,20.2,"01:53:20",1
"18/06/10","02:10",0.0,15.8,90.8,1001.2,296.6,1.1,1.4,321.0,0.00,14.3,20.2,"02:00:40",1
"18/06/10","02:20",0.0,15.7,91.6,1001.2,305.1,1.0,1.2,303.5,0.00,14.4,20.2,"02:15:20",1
"18/06/10","02:30",0.0,15.7,91.9,1001.0,306.6,1.0,1.4,306.6,0.00,14.4,19.9,"02:23:12",1
"18/06/10","02:40",0.0,15.8,92.0,1001.2,291.1,1.0,1.3,284.7,0.00,14.5,20.0,"02:36:08",1
"18/06/10","02:50",0.0,15.8,92.1,1001.0,293.9,1.0,1.3,306.4,0.00,14.6,20.1,"02:48:40",1
"18/06/10","03:00",0.0,16.0,92.0,1001.2,324.1,1.1,2.5,339.7,0.00,14.7,20.0,"02:52:48",1
"18/06/10","03:10",0.0,16.4,91.8,1001.2,325.6,1.8,3.4,312.4,0.00,15.1,19.9,"03:09:52",1
"18/06/10","03:20",0.0,16.7,90.6,1001.2,314.8,1.5,2.5,313.2,0.00,15.2,19.7,"03:13:12",1
"18/06/10","03:30",0.0,16.7,89.6,1001.0,296.3,1.0,2.1,329.8,0.00,15.0,19.9,"03:21:12",1
"18/06/10","03:40",0.0,16.5,90.0,1001.5,300.7,1.2,1.8,314.1,0.00,14.9,19.7,"03:32:48",1
"18/06/10","03:50",0.0,16.4,90.3,1001.0,323.5,1.5,2.0,333.1,0.00,14.8,19.9,"03:41:44",1
"18/06/10","04:00",0.0,16.6,90.4,1001.0,328.1,1.5,2.7,330.6,0.00,15.1,19.7,"03:53:52",1
"18/06/10","04:10",0.0,16.8,90.0,1001.0,311.8,1.7,3.9,337.4,0.00,15.2,19.7,"04:01:20",1
"18/06/10","04:20",0.0,17.0,89.1,1001.2,304.4,1.5,3.1,330.5,0.00,15.2,19.7,"04:14:08",1
"18/06/10","04:30",0.0,16.9,89.1,1001.2,313.9,1.1,1.9,333.5,0.00,15.1,19.8,"04:22:56",1
"18/06/10","04:40",0.0,16.9,88.9,1001.5,334.7,1.2,2.0,329.8,0.00,15.1,19.5,"04:38:48",1
"18/06/10","04:50",0.0,16.9,88.6,1001.7,336.4,1.2,1.7,359.0,0.00,15.0,19.6,"04:40:24",1
"18/06/10","05:00",0.0,17.0,88.7,1001.5,329.5,1.5,3.4,347.0,0.00,15.2,19.7,"04:55:12",1
"18/06/10","05:10",0.0,17.0,88.7,1001.2,330.0,1.5,2.2,316.9,0.00,15.2,19.6,"05:07:28",1
"18/06/10","05:20",0.0,16.9,89.2,1001.2,326.8,1.3,2.9,339.7,0.00,15.2,19.6,"05:14:56",1
"18/06/10","05:30",0.0,16.9,89.8,1001.0,325.6,1.0,2.1,339.1,0.00,15.3,19.5,"05:23:12",1
"18/06/10","05:40",0.0,17.1,89.7,1001.5,314.9,1.3,2.9,324.6,0.01,15.4,19.8,"05:35:28",1
"18/06/10","05:50",0.0,17.4,89.3,1001.2,325.3,1.6,2.4,318.6,0.01,15.7,19.6,"05:44:08",1
"18/06/10","06:00",0.0,17.5,89.2,1001.0,326.5,1.7,2.9,318.3,0.02,15.7,19.6,"05:58:32",1
"18/06/10","06:10",0.0,17.7,88.4,1001.0,327.7,2.2,3.2,324.3,0.02,15.8,19.6,"06:06:48",1
"18/06/10","06:20",0.0,17.8,87.9,1001.5,325.0,2.0,3.3,331.0,0.01,15.8,19.5,"06:16:48",1
"18/06/10","06:30",0.0,17.9,87.7,1001.2,320.9,1.7,2.7,331.3,0.01,15.9,19.4,"06:29:36",1
"18/06/10","06:40",0.0,18.0,87.8,1001.7,320.9,1.2,1.9,323.4,0.02,16.0,19.7,"06:32:32",1
"18/06/10","06:50",0.0,18.1,87.5,1001.9,328.2,0.8,2.0,325.2,0.01,16.0,19.6,"06:48:16",1
"18/06/10","07:00",0.0,18.2,87.8,1001.7,320.2,1.2,2.0,316.6,0.02,16.2,19.6,"06:51:44",1
"18/06/10","07:10",0.0,18.4,87.8,1001.5,326.1,1.5,2.2,334.7,0.05,16.4,19.8,"07:07:16",1
"18/06/10","07:20",0.0,18.7,87.0,1001.7,329.1,1.3,3.1,337.5,0.04,16.5,19.7,"07:10:24",1
"18/06/10","07:30",0.0,18.8,86.7,1001.7,328.0,1.8,3.5,340.0,0.04,16.6,19.6,"07:24:32",1
"18/06/10","07:40",0.0,18.8,85.9,1001.2,324.4,1.5,2.6,328.8,0.03,16.4,19.8,"07:30:32",1
"18/06/10","07:50",0.0,18.9,86.3,1001.7,322.9,1.6,2.4,336.8,0.03,16.6,19.9,"07:42:00",1
"18/06/10","08:00",0.0,18.9,86.5,1001.7,305.5,1.1,2.0,319.4,0.06,16.6,20.0,"07:56:32",1
"18/06/10","08:10",0.0,19.0,85.9,1001.7,301.1,1.2,2.1,320.6,0.05,16.6,19.9,"08:06:08",1
"18/06/10","08:20",0.0,19.3,86.4,1001.5,321.7,1.7,2.7,336.0,0.07,17.0,20.1,"08:18:40",1
"18/06/10","08:30",0.0,19.7,85.8,1001.9,322.2,1.5,2.2,319.1,0.11,17.3,20.1,"08:25:04",1
"18/06/10","08:40",0.0,20.0,84.1,1001.5,314.2,1.5,3.3,312.4,0.11,17.3,20.1,"08:33:20",1
"18/06/10","08:50",0.0,19.9,83.5,1001.9,307.3,2.0,3.2,336.1,0.11,17.1,19.9,"08:49:44",1
"18/06/10","09:00",0.0,19.9,83.6,1001.5,313.3,1.8,3.2,335.5,0.13,17.1,20.3,"08:57:44",1
"18/06/10","09:10",0.0,20.7,83.8,1001.2,325.6,2.0,3.9,329.8,0.15,17.9,20.2,"09:04:32",1
"18/06/10","09:20",0.0,20.7,81.9,1001.0,319.0,1.3,2.1,334.2,0.13,17.5,20.2,"09:12:00",1
"18/06/10","09:30",0.0,21.0,82.2,1001.2,287.9,1.0,2.0,316.6,0.11,17.9,20.3,"09:20:24",1
"18/06/10","09:40",0.0,21.4,80.7,1001.2,283.1,1.0,2.5,293.2,0.13,18.0,20.4,"09:38:56",1
"18/06/10","09:50",0.0,22.1,78.3,1001.0,301.6,0.8,1.9,331.8,0.16,18.2,20.6,"09:46:00",1
"18/06/10","10:00",0.0,22.9,77.1,1001.0,281.8,0.7,1.9,301.3,0.16,18.7,20.5,"09:53:20",1
"18/06/10","10:10",0.0,23.3,75.7,1000.8,258.4,0.7,1.6,237.2,0.19,18.8,20.7,"10:03:52",1
"18/06/10","10:20",0.0,23.6,74.3,1000.8,309.9,0.6,1.3,15.9,0.18,18.8,20.7,"10:18:32",1
"18/06/10","10:30",0.0,23.7,74.9,1000.5,234.8,0.6,1.9,102.3,0.14,19.0,20.9,"10:29:04",1
"18/06/10","10:40",0.0,24.2,77.1,1000.5,155.1,0.7,2.1,122.0,0.18,20.0,20.8,"10:30:24",1
"18/06/10","10:50",0.0,23.5,76.0,1000.0,128.8,1.1,2.6,134.6,0.15,19.1,21.0,"10:41:44",1
"18/06/10","11:00",0.0,23.4,76.6,999.8,152.9,1.0,2.6,131.3,0.07,19.1,20.9,"10:57:52",1
"18/06/10","11:10",0.0,23.3,76.3,1000.3,131.6,1.1,2.9,131.1,0.05,18.9,21.0,"11:07:44",1
"18/06/10","11:20",0.0,23.2,76.9,1000.0,129.8,1.0,2.6,135.8,0.03,19.0,21.2,"11:14:32",1
"18/06/10","11:30",0.0,23.4,78.7,999.8,121.2,0.7,1.9,127.1,0.08,19.5,21.1,"11:25:20",1
"18/06/10","11:40",0.0,23.0,79.6,1000.3,112.2,1.0,3.3,109.3,0.07,19.3,21.2,"11:32:08",1
"18/06/10","11:50",0.0,22.8,81.3,999.8,142.9,1.1,2.5,113.4,0.04,19.5,21.3,"11:46:48",1
"18/06/10","12:00",0.0,22.7,83.2,999.3,149.0,0.8,3.6,122.6,0.04,19.7,21.2,"11:53:12",1
"18/06/10","12:10",0.0,22.8,83.5,999.6,94.7,0.6,2.1,148.4,0.05,19.9,21.2,"12:00:56",1
"18/06/10","12:20",0.0,23.0,83.0,999.6,52.9,0.6,2.0,172.6,0.07,20.0,21.1,"12:13:36",1
"18/06/10","12:30",0.0,23.2,82.8,998.9,113.6,0.7,1.6,116.2,0.09,20.2,21.1,"12:25:04",1
"18/06/10","12:40",0.0,23.3,81.6,999.3,119.6,1.1,3.2,109.5,0.11,20.0,21.1,"12:36:40",1
"18/06/10","12:50",0.0,23.3,80.2,999.6,147.3,1.2,3.6,134.9,0.08,19.7,21.4,"12:49:20",1
"18/06/10","13:00",0.0,23.3,80.1,999.3,116.4,1.1,3.4,138.9,0.06,19.7,21.3,"12:59:52",1
"18/06/10","13:10",0.0,23.2,80.3,999.3,127.9,1.2,3.2,97.5,0.03,19.7,21.3,"13:03:04",1
"18/06/10","13:20",0.0,23.1,80.6,999.3,82.6,1.1,2.4,54.1,0.03,19.6,21.0,"13:17:28",1
"18/06/10","13:30",0.0,23.4,80.6,999.1,123.8,0.8,2.2,118.5,0.07,19.9,21.3,"13:22:16",1
"18/06/10","13:40",0.0,23.5,80.4,999.1,87.4,1.0,3.2,107.8,0.08,20.0,21.4,"13:38:16",1
"18/06/10","13:50",0.0,23.5,79.1,999.3,85.5,1.0,2.0,114.0,0.07,19.7,21.4,"13:47:12",1
"18/06/10","14:00",0.0,23.6,78.7,999.1,87.1,0.7,1.8,351.8,0.05,19.7,21.4,"13:52:00",1
"18/06/10","14:10",0.0,23.8,78.2,998.9,109.8,0.5,1.3,119.9,0.06,19.8,21.2,"14:07:20",1
"18/06/10","14:20",0.0,24.1,76.8,998.4,101.0,0.8,2.5,83.9,0.09,19.8,21.4,"14:17:28",1
"18/06/10","14:30",0.0,23.9,76.6,998.6,144.1,1.0,2.0,122.0,0.04,19.6,21.4,"14:21:28",1
"18/06/10","14:40",0.0,23.8,77.2,998.6,131.9,0.8,3.3,141.6,0.03,19.6,21.3,"14:33:28",1
"18/06/10","14:50",0.0,23.3,79.5,998.9,152.3,1.0,2.2,174.5,0.04,19.6,21.5,"14:49:04",1
"18/06/10","15:00",0.0,23.0,81.4,998.9,144.4,0.8,2.8,166.0,0.02,19.7,21.5,"14:51:44",1
"18/06/10","15:10",0.0,22.8,82.6,998.9,31.4,0.8,2.6,323.9,0.02,19.7,21.3,"15:03:28",1
"18/06/10","15:20",0.0,22.7,83.4,998.4,22.1,0.7,2.8,120.0,0.02,19.8,21.6,"15:17:12",1
"18/06/10","15:30",0.0,22.6,83.8,998.2,356.5,0.8,2.4,358.0,0.02,19.8,21.2,"15:21:44",1
"18/06/10","15:40",0.0,22.5,84.7,998.4,353.1,0.5,1.3,352.3,0.03,19.8,21.4,"15:31:36",1
"18/06/10","15:50",0.0,22.6,85.1,997.9,351.1,0.3,1.0,31.9,0.03,20.0,21.5,"15:42:32",1
"18/06/10","16:00",0.0,22.6,85.0,998.4,13.5,0.3,0.9,87.5,0.03,20.0,21.5,"15:52:56",1
"18/06/10","16:10",0.0,22.7,84.6,998.4,1.9,0.6,1.2,55.2,0.03,20.0,21.2,"16:00:56",1
"18/06/10","16:20",0.0,22.8,84.3,998.2,34.6,0.5,1.2,54.7,0.02,20.1,21.4,"16:19:44",1
"18/06/10","16:30",0.0,22.8,84.3,998.2,65.7,0.5,1.6,92.5,0.02,20.1,21.2,"16:22:08",1
"18/06/10","16:40",0.0,22.8,84.3,998.2,6.2,0.6,1.8,70.2,0.01,20.1,21.5,"16:35:44",1
"18/06/10","16:50",0.0,22.8,84.0,997.7,35.4,0.5,1.8,105.9,0.01,20.0,21.2,"16:40:02",1
"18/06/10","17:00",0.0,22.9,83.7,998.2,345.9,0.5,1.7,334.3,0.02,20.0,21.2,"16:59:12",1
"18/06/10","17:10",0.0,23.0,83.0,997.9,16.9,0.8,2.4,334.0,0.02,20.0,21.3,"17:03:12",1
"18/06/10","17:20",0.0,23.1,82.8,997.9,15.9,0.5,1.8,15.3,0.02,20.1,21.3,"17:14:40",1
"18/06/10","17:30",0.0,23.1,82.5,997.9,50.4,0.5,1.2,117.5,0.01,20.0,21.4,"17:28:00",1
"18/06/10","17:40",0.0,23.0,82.6,997.9,69.7,0.5,1.0,86.3,0.00,19.9,21.2,"17:30:48",1
"18/06/10","17:50",0.0,22.9,82.8,998.2,59.3,0.5,1.6,126.5,0.00,19.9,21.3,"17:45:44",1
"18/06/10","18:00",0.0,22.9,82.8,997.9,10.8,1.0,2.5,344.2,0.00,19.9,21.4,"17:55:12",1
"18/06/10","18:10",0.0,22.7,83.6,997.9,355.3,0.6,1.3,36.8,0.00,19.8,21.3,"18:09:36",1
"18/06/10","18:20",0.0,22.5,84.3,997.9,58.3,0.8,2.5,15.7,0.00,19.8,21.2,"18:15:12",1
"18/06/10","18:30",0.0,22.2,85.0,997.7,174.1,1.7,3.3,158.4,0.00,19.6,21.3,"18:22:56",1
"18/06/10","18:40",0.0,22.0,86.6,997.9,161.8,0.8,2.5,131.2,0.00,19.7,21.2,"18:35:52",1
"18/06/10","18:50",0.0,21.7,88.1,997.9,206.6,0.5,1.6,115.7,0.00,19.7,21.2,"18:41:20",1
"18/06/10","19:00",0.0,21.6,89.3,997.9,272.4,0.6,0.9,176.4,0.00,19.8,21.1,"18:51:28",1
"18/06/10","19:10",0.0,21.4,90.2,997.9,306.6,1.0,1.7,305.7,0.00,19.8,21.1,"19:03:12",1
"18/06/10","19:20",0.0,21.3,91.1,997.9,321.1,0.5,0.9,309.9,0.00,19.8,21.0,"19:18:16",1
"18/06/10","19:30",0.0,21.1,91.6,998.2,295.4,0.6,1.0,311.1,0.00,19.7,21.3,"19:24:18",1
"18/06/10","19:40",0.0,20.9,92.2,997.9,317.3,1.3,2.1,324.9,0.00,19.6,21.0,"19:35:38",1
"18/06/10","19:50",0.0,20.8,92.7,997.9,324.8,1.1,2.0,318.4,0.00,19.6,21.0,"19:40:46",1
"18/06/10","20:00",0.0,20.8,93.2,997.9,316.9,0.7,1.6,330.5,0.00,19.7,21.0,"19:50:46",1
"18/06/10","20:10",0.0,20.7,93.5,997.7,314.5,1.0,2.1,341.5,0.00,19.7,20.9,"20:04:40",1
"18/06/10","20:20",0.0,20.6,93.7,997.4,324.4,1.1,1.9,329.2,0.00,19.6,20.9,"20:15:12",1
"18/06/10","20:30",0.0,20.6,93.9,997.9,308.4,0.3,1.2,313.8,0.00,19.6,21.0,"20:23:04",1
"18/06/10","20:40",0.0,20.6,94.2,997.7,296.2,0.3,0.8,312.7,0.00,19.7,21.1,"20:34:40",1
"18/06/10","20:50",0.0,20.6,94.4,997.9,272.1,0.2,0.6,235.7,0.00,19.7,21.1,"20:43:12",1
"18/06/10","21:00",0.0,20.6,94.6,997.7,274.1,0.3,1.0,304.2,0.00,19.7,20.9,"20:58:56",1
"18/06/10","21:10",0.0,20.5,94.7,997.9,273.8,0.3,1.0,236.5,0.00,19.7,21.0,"21:05:36",1
"18/06/10","21:20",0.0,20.5,94.9,998.4,297.8,0.3,1.0,317.2,0.00,19.7,20.8,"21:18:32",1
"18/06/10","21:30",0.0,20.5,95.0,997.9,300.8,0.3,1.0,316.5,0.00,19.7,20.8,"21:25:28",1
"18/06/10","21:40",0.0,20.5,95.2,998.2,314.0,0.5,1.4,304.4,0.00,19.7,21.0,"21:39:28",1
"18/06/10","21:50",0.0,20.5,95.3,997.7,311.4,0.3,0.8,358.6,0.00,19.8,20.7,"21:42:16",1
"18/06/10","22:00",0.0,20.5,95.4,997.4,255.3,0.3,0.9,235.5,0.00,19.8,20.7,"21:55:12",1
"18/06/10","22:10",0.0,20.5,95.5,997.4,283.2,0.3,1.2,306.5,0.00,19.8,20.9,"22:04:48",1
"18/06/10","22:20",0.0,20.6,95.6,997.9,306.6,0.5,1.0,344.6,0.00,19.9,20.7,"22:16:56",1
"18/06/10","22:30",0.0,20.6,95.6,997.4,301.7,0.5,1.0,196.9,0.00,19.9,20.7,"22:28:00",1
"18/06/10","22:40",0.0,20.6,95.7,997.2,299.8,0.5,1.2,324.2,0.00,19.9,20.9,"22:32:56",1
"18/06/10","22:50",0.0,20.6,95.7,997.0,315.7,0.5,1.2,335.2,0.00,19.9,20.7,"22:41:28",1
"18/06/10","23:00",0.0,20.6,95.6,996.7,14.3,0.6,2.4,353.7,0.00,19.9,20.7,"22:58:16",1
"18/06/10","23:10",0.0,20.7,95.5,996.7,307.8,0.6,1.4,339.9,0.00,20.0,20.9,"23:06:48",1
"18/06/10","23:20",0.0,20.7,95.4,996.5,350.3,0.7,2.1,315.4,0.00,20.0,20.7,"23:15:04",1
"18/06/10","23:30",0.0,20.8,95.3,996.5,286.8,0.5,1.1,305.9,0.00,20.1,20.8,"23:20:24",1
"18/06/10","23:40",0.0,20.8,95.3,996.7,310.4,0.7,1.6,308.3,0.00,20.1,20.7,"23:34:24",1
"18/06/10","23:50",0.0,20.8,95.0,996.3,349.3,0.5,1.6,174.5,0.00,20.0,20.8,"23:44:24",1
"18/06/10","24:00",0.2,20.8,94.9,996.0,337.1,0.6,1.9,323.2,0.00,20.0,20.7,"23:55:04",1
